Date String (YYYY-MM-DD hh:mm:ss) UTC,Instrument flags,Ambient pressure (hPa),Sample flow (lpm),Bypass flow (lpm),Sample temperature (°C),Ambient temperature (°C),ASC tube jacket temperature (°C),LED temperature (°C),Box temperature (°C),Sample RH (%),Span deviation,Mass concentration (μg/m³),Mass concentration (μg/m³),Mass concentration (μg/m³)
DateTimeUTC,F1_M11,P_M11,Q1_M11,Q2_M11,T1_M11,T2_M11,T3_M11,T4_M11,T5_M11,U1_M11,ZSPAN_M11,X0_M11,X2_M11,X1_M11
2021-11-26 20:00:00,,0825.9,5.00,0.00,30.4,28.8,00.0,39.4,31.9,07.1,0000.0,0002.54,0001.15,0000.70
2021-11-26 20:01:00,,0825.9,4.99,0.00,30.4,28.9,00.0,39.4,32.0,07.1,0000.0,0002.50,0001.13,0000.70
2021-11-26 20:02:00,,0825.9,5.00,0.00,30.4,29.0,00.0,39.4,32.0,07.1,0000.0,0002.50,0001.12,0000.70
2021-11-26 20:03:00,,0825.9,5.00,0.00,30.4,29.1,00.0,39.4,32.1,07.1,0000.0,0002.46,0001.11,0000.68
2021-11-26 20:04:00,,0825.9,5.00,0.00,30.4,29.2,00.0,39.4,32.1,07.1,0000.0,0002.32,0001.12,0000.68
2021-11-26 20:05:00,,0826.0,5.01,0.00,30.4,29.2,00.0,39.4,32.1,07.1,0000.0,0002.45,0001.15,0000.67
2021-11-26 20:06:00,,0825.9,5.00,0.00,30.4,29.3,00.0,39.4,32.1,07.1,0000.0,0002.31,0001.14,0000.66
2021-11-26 20:07:00,,0825.9,5.00,0.00,30.4,29.3,00.0,39.4,32.1,07.1,0000.0,0002.93,0001.16,0000.64
2021-11-26 20:08:00,,0825.9,5.00,0.00,30.5,29.3,00.0,39.4,32.1,07.0,0000.0,0003.10,0001.18,0000.64
2021-11-26 20:09:00,,0826.0,5.01,0.00,30.5,29.3,00.0,39.4,32.1,07.0,0000.0,0003.04,0001.15,0000.62
2021-11-26 20:10:00,,0826.0,5.01,0.00,30.5,29.4,00.0,39.5,32.1,07.1,0000.0,0002.83,0001.09,0000.60
2021-11-26 20:11:00,,0825.9,4.99,0.00,30.5,29.4,00.0,39.5,32.1,07.1,0000.0,0002.66,0001.06,0000.60
2021-11-26 20:12:00,,0825.9,5.01,0.00,30.5,29.4,00.0,39.5,32.1,07.1,0000.0,0002.56,0001.02,0000.59
2021-11-26 20:13:00,,0825.9,4.99,0.00,30.5,29.5,00.0,39.5,32.2,07.1,0000.0,0002.52,0001.00,0000.59
2021-11-26 20:14:00,,0825.9,5.01,0.00,30.6,29.5,00.0,39.5,32.2,07.1,0000.0,0002.48,0000.98,0000.59
2021-11-26 20:15:00,,0825.9,5.00,0.00,30.6,29.5,00.0,39.5,32.2,07.1,0000.0,0002.45,0000.94,0000.59
2021-11-26 20:16:00,,0825.9,5.01,0.00,30.6,29.6,00.0,39.5,32.2,07.1,0000.0,0003.16,0000.93,0000.59
2021-11-26 20:17:00,,0825.8,5.00,0.00,30.6,29.6,00.0,39.5,32.3,07.1,0000.0,0003.25,0000.96,0000.61
2021-11-26 20:18:00,,0825.9,4.99,0.00,30.6,29.6,00.0,39.5,32.3,07.1,0000.0,0002.97,0000.97,0000.65
2021-11-26 20:19:00,,0825.8,4.99,0.00,30.6,29.7,00.0,39.6,32.3,07.1,0000.0,0003.92,0000.96,0000.68
2021-11-26 20:20:00,,0825.8,5.01,0.00,30.7,29.6,00.0,39.6,32.3,07.1,0000.0,0003.99,0000.96,0000.69
2021-11-26 20:21:00,,0826.2,5.00,0.00,30.6,27.9,00.0,39.6,32.0,07.1,0000.0,0004.05,0000.96,0000.70
2021-11-26 20:22:00,,0826.2,5.00,0.00,30.4,26.2,00.0,39.5,31.6,07.2,0000.0,0004.29,0001.00,0000.70
2021-11-26 20:23:00,,0825.7,5.00,0.00,30.3,26.2,00.0,39.5,31.5,07.2,0000.0,0004.50,0001.06,0000.71
2021-11-26 20:24:00,,0825.7,4.99,0.00,30.2,26.6,00.0,39.4,31.5,07.3,0000.0,0004.58,0001.08,0000.71
2021-11-26 20:25:00,,0825.7,5.01,0.00,30.1,27.1,00.0,39.3,31.5,07.3,0000.0,0004.56,0001.08,0000.72
2021-11-26 20:26:00,,0825.7,5.00,0.00,30.1,27.5,00.0,39.3,31.6,07.3,0000.0,0004.35,0001.06,0000.71
2021-11-26 20:27:00,,0825.7,5.00,0.00,30.1,27.9,00.0,39.3,31.6,07.4,0000.0,0003.49,0001.03,0000.71
2021-11-26 20:28:00,,0825.6,5.00,0.00,30.1,28.1,00.0,39.2,31.6,07.4,0000.0,0003.75,0001.00,0000.69
2021-11-26 20:29:00,,0825.7,5.01,0.00,30.1,28.3,00.0,39.2,31.7,07.4,0000.0,0003.55,0000.93,0000.65
2021-11-26 20:30:00,,0825.7,5.00,0.00,30.1,28.5,00.0,39.2,31.7,07.4,0000.0,0002.75,0000.89,0000.60
2021-11-26 20:31:00,,0825.6,5.00,0.00,30.1,28.6,00.0,39.2,31.8,07.4,0000.0,0002.99,0000.88,0000.59
2021-11-26 20:32:00,,0825.7,5.00,0.00,30.1,28.8,00.0,39.2,31.8,07.4,0000.0,0002.91,0000.86,0000.58
2021-11-26 20:33:00,,0825.6,4.98,0.00,30.1,28.8,00.0,39.2,31.8,07.5,0000.0,0002.92,0000.84,0000.57
2021-11-26 20:34:00,,0825.6,5.01,0.00,30.2,28.9,00.0,39.2,31.9,07.5,0000.0,0002.78,0000.81,0000.58
2021-11-26 20:35:00,,0825.6,5.00,0.00,30.2,29.0,00.0,39.2,31.9,07.5,0000.0,0002.70,0000.80,0000.58
2021-11-26 20:36:00,,0825.6,5.00,0.00,30.2,29.0,00.0,39.2,31.9,07.5,0000.0,0002.66,0000.78,0000.58
2021-11-26 20:37:00,,0825.6,4.99,0.00,30.2,29.1,00.0,39.2,31.9,07.5,0000.0,0002.70,0000.80,0000.58
2021-11-26 20:38:00,,0825.6,5.00,0.00,30.3,29.1,00.0,39.2,32.0,07.5,0000.0,0003.02,0000.82,0000.58
2021-11-26 20:39:00,,0825.6,5.01,0.00,30.3,29.2,00.0,39.2,32.0,07.5,0000.0,0002.87,0000.82,0000.58
2021-11-26 20:40:00,,0825.6,4.99,0.00,30.3,29.2,00.0,39.2,32.0,07.5,0000.0,0002.78,0000.84,0000.59
2021-11-26 20:41:00,,0825.6,5.01,0.00,30.3,29.3,00.0,39.2,32.0,07.5,0000.0,0002.82,0000.87,0000.59
2021-11-26 20:42:00,,0825.6,4.98,0.00,30.4,29.3,00.0,39.3,32.1,07.5,0000.0,0002.48,0000.88,0000.60
2021-11-26 20:43:00,,0825.6,5.01,0.00,30.4,29.3,00.0,39.3,32.1,07.5,0000.0,0002.48,0000.87,0000.60
2021-11-26 20:44:00,,0825.6,4.99,0.00,30.4,29.4,00.0,39.3,32.1,07.5,0000.0,0002.79,0000.90,0000.61
2021-11-26 20:45:00,,0825.6,5.02,0.00,30.4,29.4,00.0,39.3,32.1,07.5,0000.0,0002.77,0000.89,0000.61
2021-11-26 20:46:00,,0825.6,4.98,0.00,30.4,29.4,00.0,39.3,32.1,07.5,0000.0,0002.76,0000.89,0000.60
2021-11-26 20:47:00,,0825.6,5.02,0.00,30.4,29.4,00.0,39.3,32.1,07.4,0000.0,0002.76,0000.90,0000.61
2021-11-26 20:48:00,,0825.8,4.99,0.00,30.5,29.5,00.0,39.4,32.2,07.4,0000.0,0002.85,0000.95,0000.62
2021-11-26 20:49:00,,0825.6,5.01,0.00,30.5,29.5,00.0,39.4,32.2,07.4,0000.0,0002.65,0000.94,0000.62
2021-11-26 20:50:00,,0825.6,4.99,0.00,30.5,29.5,00.0,39.4,32.2,07.4,0000.0,0002.35,0000.90,0000.63
2021-11-26 20:51:00,,0825.6,5.01,0.00,30.5,29.5,00.0,39.4,32.2,07.3,0000.0,0002.84,0000.92,0000.64
2021-11-26 20:52:00,,0825.6,4.98,0.00,30.5,29.5,00.0,39.4,32.2,07.3,0000.0,0003.77,0000.92,0000.64
2021-11-26 20:53:00,,0825.6,5.01,0.00,30.6,29.5,00.0,39.4,32.2,07.3,0000.0,0004.68,0000.94,0000.64
2021-11-26 20:54:00,,0825.6,5.00,0.00,30.6,29.6,00.0,39.5,32.3,07.3,0000.0,0004.80,0000.97,0000.64
2021-11-26 20:55:00,,0825.6,5.00,0.00,30.6,29.6,00.0,39.5,32.3,07.3,0000.0,0004.43,0000.94,0000.64
2021-11-26 20:56:00,,0825.6,5.01,0.00,30.5,28.2,00.0,39.5,32.0,07.3,0000.0,0004.25,0000.94,0000.65
2021-11-26 20:57:00,,0825.6,4.99,0.00,30.4,26.9,00.0,39.5,31.7,07.4,0000.0,0004.29,0000.95,0000.66
2021-11-26 20:58:00,,0825.6,5.01,0.00,30.3,27.0,00.0,39.4,31.7,07.4,0000.0,0004.28,0000.94,0000.65
2021-11-26 20:59:00,,0825.6,5.00,0.00,30.2,27.4,00.0,39.4,31.7,07.4,0000.0,0004.30,0000.93,0000.65
